This demonstration page uses our WeatherBlox Daily Observations layout. Learn more.

Left ArrowRight Arrow

39.08367, -84.50855

Hourly Observations for December 27, 2015

Temp ( °F °C ) Dew Point ( °F °C ) Humidity (%) Winds ( mph kmh ) Pressure ( in mb ) Visibility ( mi km ) Precip ( " mm )
12:53 am 00:53 Partly Cloudy 59 15 59 15 100 100 SW 7 11 29.98 1015 10 16 0.00 0.00
1:09 am 01:09 Mostly Cloudy 61 16.1 60 15.6 97 97 SW 7 11 29.94 1014 10 16 0.00 0.00
1:53 am 01:53 Cloudy 62 16.7 61 16.1 96 96 S 7 11 29.96 1014 10 16 0.00 0.00
2:53 am 02:53 Mostly Cloudy 65 18.3 63 17.2 93 93 SSW 14 22 29.95 1014 10 16 0.00 0.00
3:05 am 03:05 Partly Cloudy 66 18.9 63 17.2 90 90 SSW 16 26 29.94 1014 10 16 0.00 0.00
3:53 am 03:53 Mostly Cloudy 67 19.4 64 17.8 91 91 SSW 17 28 29.94 1014 10 16 0.00 0.00
4:53 am 04:53 Mostly Cloudy 67 19.4 64 17.8 91 91 SSW 14 22 29.93 1014 10 16 0.01 0.25
5:31 am 05:31 Cloudy 67 19.4 64 17.8 91 91 SSW 16 26 29.91 1013 10 16 0.00 0.03
5:53 am 05:53 Cloudy with Light Rain 67 19.4 64 17.8 91 91 SSW 14 22 29.92 1013 10 16 0.00 0.03
6:53 am 06:53 Mostly Cloudy with Light Rain 66 18.9 64 17.8 93 93 SSW 14 22 29.91 1013 8 13 0.00 0.03
7:22 am 07:22 Cloudy with Light Rain 66 19 64 18 94 94 SSW 14 22 29.91 1013 8 13 0.00 0.00
7:37 am 07:37 Cloudy 66 18.9 65 18.3 96 96 S 15 24 29.91 1013 10 16 0.09 2.29
7:53 am 07:53 Cloudy 66 18.9 64 17.8 93 93 SSW 14 22 29.91 1013 10 16 0.09 2.29
8:53 am 08:53 Cloudy with Light Rain 67 19.4 65 18.3 93 93 SSW 13 20 29.91 1013 10 16 0.00 0.03
9:08 am 09:08 Mostly Cloudy with Light Rain 63 17 61 16 94 94 N 17 28 29.91 1013 2 3 0.00 0.00
9:15 am 09:15 Cloudy with Light Rain 60 15.6 60 15.6 100 100 N 8 13 29.91 1013 4 6 0.13 3.30
9:27 am 09:27 Cloudy with Heavy Rain 61 16 61 16 100 100 NW 5 7 29.91 1013 2 3 0.00 0.00
9:34 am 09:34 Cloudy with Light Rain 61 16 61 16 100 100 N 8 13 29.91 1013 3 5 0.00 0.00
9:53 am 09:53 Cloudy with Rain 59 15 59 15 100 100 N 10 17 29.96 1015 3 5 0.35 8.89
10:03 am 10:03 Cloudy with Rain 59 15 59 15 100 100 N 9 15 29.94 1014 3 5 0.00 0.00
10:15 am 10:15 Cloudy with Heavy Rain 58 14.4 58 14.4 100 100 NNW 9 15 29.97 1015 1 2 0.27 6.86
10:43 am 10:43 Cloudy with Rain 57 13.9 57 13.9 100 100 N 7 11 30.00 1016 3 5 0.60 15.24
10:53 am 10:53 Cloudy with Light Rain 58 14.4 57 13.9 97 97 N 9 15 30.00 1016 5 8 0.61 15.49
11:05 am 11:05 Cloudy with Light Rain 57 13.9 57 13.9 100 100 N 7 11 30.00 1016 5 8 0.02 0.51
11:14 am 11:14 Cloudy with Rain 57 14 57 14 100 100 N 9 15 30.00 1016 4 6 0.00 0.00
11:31 am 11:31 Cloudy with Rain 56 13.3 55 12.8 97 97 NNW 14 22 30.00 1016 4 6 0.10 2.54
11:44 am 11:44 Cloudy with Heavy Rain 54 12 54 12 100 100 NNW 17 28 30.03 1017 2 3 0.00 0.00
11:53 am 11:53 Cloudy with Rain 53 11.7 53 11.7 100 100 NNW 16 26 30.02 1017 3 5 0.22 5.59
12:53 pm 12:53 Cloudy with Rain 50 10 50 10 100 100 NNE 15 24 29.99 1016 5 8 0.14 3.56
1:53 pm 13:53 Cloudy with Light Rain 49 9.4 49 9.4 100 100 N 10 17 30.01 1016 10 16 0.06 1.52
2:53 pm 14:53 Cloudy with Light Rain 47 8.3 45 7.2 93 93 N 14 22 30.07 1018 7 11 0.09 2.29
3:53 pm 15:53 Cloudy with Light Rain 46 7.8 45 7.2 96 96 NNE 16 26 30.08 1019 3 5 0.05 1.27
4:53 pm 16:53 Cloudy with Light Rain 44 6.7 42 5.6 93 93 NNE 14 22 30.14 1021 10 16 0.04 1.02
5:53 pm 17:53 Cloudy with Light Rain 42 5.6 40 4.4 92 92 NNE 16 26 30.18 1022 5 8 0.03 0.76
6:53 pm 18:53 Cloudy with Light Rain 42 5.6 40 4.4 92 92 NNE 15 24 30.21 1023 10 16 0.02 0.51
7:53 pm 19:53 Cloudy with Light Rain 41 5 38 3.3 89 89 NE 14 22 30.22 1023 10 16 0.00 0.03
8:53 pm 20:53 Cloudy 41 5 37 2.8 86 86 NE 14 22 30.24 1024 10 16 0.00 0.03
9:53 pm 21:53 Cloudy 41 5 37 2.8 86 86 NNE 10 17 30.24 1024 10 16 0.00 0.03
10:53 pm 22:53 Cloudy 41 5 37 2.8 86 86 ENE 9 15 30.25 1024 10 16 0.01 0.25
11:53 pm 23:53 Cloudy 41 5 37 2.8 86 86 NE 14 22 30.23 1024 10 16 0.00 0.00

Powered by AerisWeather